QPF
0.05 0.05 0.08 0.07 0.07 0.06 0.07 0.07 0.06 0.09 0.09 0.09 0.08 0.09 0.10 0.08 0.07 0.07 0.07 0.05 0.05 0.05 0.06 0.07 0.09 0.08 0.08 0.08 0.08 0.08 0.08 0.10 0.12 0.10 0.09 0.08 0.07 0.08 0.09 0.09 0.10 0.09 0.11
0.02 0.02 0.02 0.03 0.03 0.05 0.05 0.06 0.06 0.07 0.08 0.10 0.12 0.12 0.11 0.09 0.10 0.10 0.11 0.08 0.06 0.06 0.06 0.08 0.09 0.09 0.09 0.09 0.08 0.09 0.08 0.09 0.11 0.12 0.11 0.09 0.08 0.07 0.08 0.08 0.08 0.08 0.08
0.02 0.01 0.01 0.02 0.03 0.03 0.04 0.05 0.05 0.06 0.08 0.09 0.10 0.09 0.09 0.08 0.10 0.11 0.10 0.08 0.06 0.05 0.05 0.05 0.06 0.08 0.08 0.08 0.07 0.08 0.08 0.09 0.11 0.12 0.13 0.13 0.11 0.11 0.09 0.08 0.07 0.07 0.07
0.03 0.02 0.01 0.02 0.03 0.04 0.04 0.04 0.06 0.07 0.08 0.09 0.10 0.10 0.10 0.10 0.10 0.08 0.08 0.07 0.06 0.04 0.03 0.03 0.04 0.05 0.07 0.08 0.06 0.06 0.07 0.07 0.09 0.11 0.11 0.11 0.12 0.11 0.11 0.11 0.09 0.07 0.07
0.03 0.03 0.02 0.03 0.04 0.05 0.05 0.05 0.06 0.06 0.07 0.09 0.10 0.11 0.10 0.10 0.09 0.08 0.07 0.06 0.06 0.05 0.04 0.05 0.05 0.05 0.06 0.06 0.06 0.06 0.07 0.07 0.07 0.08 0.09 0.09 0.10 0.10 0.10 0.10 0.12 0.09 0.08
0.03 0.03 0.02 0.02 0.05 0.06 0.06 0.06 0.06 0.07 0.08 0.08 0.08 0.08 0.09 0.09 0.09 0.09 0.09 0.08 0.09 0.08 0.07 0.05 0.05 0.05 0.05 0.04 0.04 0.05 0.06 0.07 0.08 0.08 0.09 0.08 0.08 0.08 0.09 0.09 0.10 0.09 0.08
0.05 0.04 0.04 0.04 0.04 0.05 0.06 0.06 0.07 0.08 0.09 0.08 0.07 0.07 0.07 0.08 0.10 0.12 0.13 0.11 0.09 0.08 0.07 0.06 0.06 0.06 0.05 0.04 0.05 0.06 0.07 0.07 0.07 0.07 0.07 0.08 0.10 0.11 0.11 0.11 0.11 0.09 0.07
0.08 0.06 0.05 0.03 0.03 0.03 0.04 0.06 0.07 0.07 0.08 0.09 0.08 0.08 0.09 0.08 0.10 0.13 0.13 0.11 0.09 0.08 0.07 0.06 0.06 0.05 0.05 0.05 0.07 0.07 0.07 0.06 0.06 0.06 0.07 0.08 0.08 0.10 0.11 0.12 0.13 0.11 0.07
0.05 0.05 0.04 0.03 0.02 0.02 0.03 0.04 0.05 0.07 0.07 0.07 0.08 0.08 0.08 0.08 0.08 0.08 0.08 0.07 0.06 0.06 0.05 0.04 0.04 0.04 0.05 0.05 0.05 0.06 0.05 0.05 0.05 0.06 0.07 0.07 0.07 0.08 0.10 0.11 0.12 0.12 0.09
0.06 0.09 0.06 0.04 0.02 0.02 0.02 0.03 0.05 0.05 0.06 0.05 0.05 0.05 0.06 0.06 0.06 0.07 0.06 0.06 0.07 0.06 0.05 0.04 0.04 0.03 0.04 0.04 0.05 0.05 0.04 0.04 0.05 0.05 0.06 0.06 0.06 0.08 0.09 0.10 0.10 0.10 0.10
0.03 0.05 0.04 0.03 0.02 0.02 0.02 0.02 0.02 0.02 0.02 0.03 0.03 0.03 0.05 0.05 0.06 0.06 0.06 0.06 0.05 0.04 0.03 0.03 0.03 0.03 0.03 0.04 0.05 0.04 0.02 0.02 0.03 0.05 0.06 0.07 0.07 0.09 0.11 0.09 0.08 0.08 0.09
0.02 0.03 0.03 0.03 0.03 0.02 0.01 0.01 0.01 0.01 0.02 0.03 0.03 0.03 0.02 0.03 0.04 0.05 0.04 0.04 0.03 0.03 0.03 0.02 0.02 0.02 0.03 0.03 0.03 0.03 0.01 0.01 0.02 0.04 0.06 0.06 0.07 0.07 0.07 0.07 0.06 0.07 0.08
0.02 0.02 0.02 0.03 0.04 0.03 0.02 0.01 0.01 0.02 0.01 0.01 0.03 0.04 0.04 0.04 0.04 0.05 0.05 0.05 0.05 0.04 0.03 0.02 0.02 0.02 0.03 0.03 0.03 0.03 0.02 0.01 0.02 0.03 0.05 0.05 0.05 0.06 0.06 0.06 0.06 0.07 0.07
0.02 0.02 0.03 0.04 0.05 0.04 0.02 0.01 0.01 0.02 0.01 0.01 0.02 0.04 0.05 0.05 0.05 0.05 0.04 0.05 0.04 0.04 0.03 0.02 0.02 0.02 0.02 0.02 0.02 0.03 0.03 0.02 0.02 0.02 0.03 0.03 0.04 0.06 0.06 0.06 0.07 0.06 0.07
0.02 0.02 0.03 0.04 0.04 0.04 0.03 0.02 0.02 0.01 0.01 0.02 0.02 0.03 0.04 0.04 0.03 0.03 0.03 0.03 0.03 0.03 0.03 0.03 0.03 0.02 0.02 0.02 0.02 0.02 0.04 0.04 0.03 0.03 0.03 0.02 0.02 0.02 0.03 0.03 0.05 0.05 0.06
0.02 0.03 0.03 0.04 0.05 0.05 0.04 0.03 0.01 0.01 0.02 0.03 0.02 0.02 0.03 0.03 0.02 0.02 0.03 0.03 0.03 0.03 0.03 0.03 0.03 0.03 0.02 0.01 0.02 0.02 0.05 0.07 0.05 0.04 0.03 0.02 0.02 0.02 0.02 0.02 0.02 0.03 0.04
0.02 0.03 0.04 0.04 0.05 0.07 0.06 0.03 0.02 0.02 0.02 0.02 0.03 0.03 0.03 0.04 0.03 0.03 0.04 0.05 0.04 0.03 0.03 0.03 0.03 0.03 0.02 0.01 0.01 0.03 0.04 0.04 0.04 0.03 0.04 0.03 0.03 0.02 0.02 0.02 0.01 0.02 0.02
0.01 0.02 0.04 0.05 0.05 0.06 0.07 0.05 0.02 0.01 0.02 0.02 0.03 0.03 0.03 0.04 0.04 0.04 0.04 0.04 0.04 0.04 0.04 0.03 0.04 0.03 0.03 0.02 0.02 0.03 0.02 0.03 0.02 0.02 0.03 0.03 0.04 0.02 0.02 0.02 0.02 0.03 0.02
0.02 0.03 0.04 0.06 0.07 0.05 0.06 0.06 0.03 0.02 0.02 0.03 0.03 0.03 0.03 0.04 0.04 0.04 0.04 0.04 0.04 0.04 0.05 0.04 0.05 0.05 0.04 0.02 0.01 0.02 0.03 0.04 0.04 0.03 0.02 0.03 0.04 0.02 0.02 0.02 0.03 0.03 0.04
0.02 0.03 0.04 0.05 0.06 0.06 0.06 0.06 0.04 0.03 0.03 0.02 0.02 0.03 0.03 0.04 0.06 0.05 0.05 0.04 0.03 0.03 0.04 0.04 0.05 0.04 0.04 0.03 0.02 0.01 0.02 0.04 0.05 0.05 0.04 0.03 0.03 0.02 0.02 0.02 0.03 0.03 0.03
0.02 0.03 0.04 0.06 0.06 0.06 0.06 0.06 0.05 0.03 0.02 0.02 0.02 0.02 0.02 0.04 0.05 0.05 0.04 0.04 0.04 0.03 0.04 0.04 0.04 0.03 0.03 0.03 0.02 0.02 0.03 0.03 0.03 0.04 0.04 0.02 0.01 0.01 0.01 0.02 0.03 0.03 0.02
0.02 0.03 0.03 0.05 0.06 0.07 0.07 0.06 0.05 0.04 0.04 0.03 0.03 0.02 0.02 0.02 0.02 0.04 0.04 0.04 0.04 0.04 0.03 0.04 0.04 0.03 0.03 0.02 0.02 0.01 0.02 0.02 0.03 0.04 0.02 0.00 0.00 0.00 0.01 0.01 0.02 0.03 0.03
0.04 0.05 0.05 0.06 0.07 0.08 0.06 0.04 0.04 0.05 0.06 0.06 0.04 0.03 0.02 0.01 0.01 0.02 0.01 0.02 0.02 0.02 0.02 0.02 0.03 0.03 0.03 0.02 0.01 0.01 0.01 0.00 0.02 0.02 0.01 0.00 0.00 0.01 0.01 0.01 0.01 0.02 0.03
0.04 0.04 0.04 0.04 0.04 0.04 0.04 0.05 0.05 0.05 0.06 0.05 0.04 0.03 0.02 0.01 0.01 0.01 0.01 0.01 0.01 0.01 0.01 0.01 0.02 0.02 0.02 0.01 0.01 0.01 0.01 0.01 0.01 0.01 0.01 0.01 0.01 0.01 0.01 0.01 0.01 0.02 0.02
0.03 0.03 0.03 0.03 0.02 0.02 0.03 0.04 0.05 0.05 0.05 0.05 0.04 0.03 0.02 0.01 0.01 0.00 0.00 0.00 0.00 0.00 0.00 0.00 0.00 0.01 0.00 0.00 0.00 0.00 0.01 0.01 0.01 0.01 0.01 0.02 0.03 0.03 0.03 0.03 0.03 0.02 0.02
0.02 0.02 0.02 0.02 0.01 0.02 0.03 0.04 0.04 0.04 0.03 0.03 0.02 0.02 0.01 0.01 0.01 0.00 0.00 0.00 0.00 0.00 0.00 0.00 0.00 0.00 0.00 0.00 0.00 0.00 0.00 0.00 0.01 0.01 0.01 0.03 0.04 0.04 0.05 0.05 0.05 0.03 0.03
MSLP
1007.68 1008.28 1008.90 1009.50 1010.03 1010.49 1010.89 1011.26 1011.63 1012.00 1012.40 1012.81 1013.19 1013.53 1013.79 1013.96 1014.06 1014.10 1014.13 1014.19 1014.31 1014.50 1014.76 1015.06 1015.36 1015.62 1015.80 1015.90 1015.93 1015.90 1015.86 1015.82 1015.82 1015.83 1015.83 1015.78 1015.63 1015.35 1014.92 1014.38 1013.78 1013.20 1012.73
1007.54 1008.20 1008.88 1009.52 1010.07 1010.55 1010.95 1011.32 1011.68 1012.06 1012.45 1012.84 1013.20 1013.49 1013.68 1013.78 1013.80 1013.77 1013.74 1013.77 1013.88 1014.10 1014.40 1014.75 1015.11 1015.42 1015.66 1015.80 1015.86 1015.87 1015.86 1015.86 1015.90 1015.94 1015.95 1015.90 1015.71 1015.35 1014.82 1014.13 1013.36 1012.61 1011.97
1007.35 1008.06 1008.77 1009.44 1010.01 1010.49 1010.90 1011.27 1011.64 1012.01 1012.40 1012.78 1013.11 1013.36 1013.51 1013.56 1013.52 1013.45 1013.40 1013.41 1013.53 1013.76 1014.10 1014.49 1014.88 1015.24 1015.51 1015.68 1015.78 1015.82 1015.85 1015.89 1015.95 1016.03 1016.06 1015.99 1015.77 1015.35 1014.71 1013.90 1012.98 1012.07 1011.27
1007.15 1007.87 1008.60 1009.28 1009.86 1010.35 1010.77 1011.14 1011.52 1011.90 1012.28 1012.66 1012.98 1013.22 1013.35 1013.38 1013.34 1013.25 1013.20 1013.21 1013.34 1013.59 1013.94 1014.35 1014.76 1015.12 1015.40 1015.60 1015.70 1015.77 1015.83 1015.90 1016.00 1016.10 1016.14 1016.07 1015.82 1015.36 1014.64 1013.74 1012.71 1011.68 1010.76
1007.00 1007.71 1008.44 1009.12 1009.71 1010.21 1010.63 1011.02 1011.40 1011.79 1012.19 1012.56 1012.90 1013.14 1013.29 1013.34 1013.30 1013.24 1013.20 1013.24 1013.38 1013.63 1013.98 1014.38 1014.77 1015.11 1015.38 1015.55 1015.66 1015.73 1015.80 1015.90 1016.02 1016.14 1016.20 1016.14 1015.88 1015.39 1014.65 1013.69 1012.60 1011.49 1010.49
1006.98 1007.66 1008.38 1009.05 1009.64 1010.14 1010.58 1010.98 1011.36 1011.77 1012.18 1012.58 1012.92 1013.20 1013.38 1013.46 1013.47 1013.44 1013.44 1013.49 1013.64 1013.88 1014.20 1014.55 1014.90 1015.19 1015.41 1015.55 1015.64 1015.70 1015.77 1015.87 1016.00 1016.14 1016.22 1016.17 1015.94 1015.45 1014.71 1013.75 1012.66 1011.54 1010.51
1007.18 1007.82 1008.50 1009.15 1009.73 1010.23 1010.67 1011.07 1011.48 1011.89 1012.32 1012.73 1013.11 1013.42 1013.64 1013.76 1013.82 1013.83 1013.86 1013.93 1014.06 1014.28 1014.54 1014.84 1015.11 1015.33 1015.49 1015.58 1015.62 1015.65 1015.70 1015.80 1015.94 1016.08 1016.18 1016.15 1015.94 1015.50 1014.81 1013.91 1012.87 1011.79 1010.79
1007.60 1008.20 1008.84 1009.46 1010.02 1010.51 1010.94 1011.35 1011.76 1012.18 1012.61 1013.04 1013.44 1013.77 1014.02 1014.19 1014.29 1014.34 1014.38 1014.45 1014.57 1014.74 1014.94 1015.16 1015.35 1015.49 1015.57 1015.60 1015.59 1015.58 1015.61 1015.69 1015.82 1015.96 1016.06 1016.06 1015.89 1015.52 1014.91 1014.10 1013.16 1012.18 1011.24
1008.23 1008.78 1009.38 1009.96 1010.49 1010.96 1011.38 1011.78 1012.18 1012.59 1013.02 1013.45 1013.86 1014.20 1014.48 1014.67 1014.78 1014.85 1014.90 1014.96 1015.05 1015.17 1015.31 1015.45 1015.56 1015.63 1015.64 1015.61 1015.56 1015.50 1015.50 1015.54 1015.64 1015.76 1015.86 1015.88 1015.76 1015.47 1014.97 1014.29 1013.48 1012.62 1011.79
1008.98 1009.49 1010.04 1010.58 1011.07 1011.50 1011.90 1012.28 1012.66 1013.07 1013.48 1013.90 1014.29 1014.64 1014.91 1015.10 1015.22 1015.28 1015.32 1015.36 1015.41 1015.48 1015.56 1015.64 1015.70 1015.71 1015.68 1015.60 1015.51 1015.43 1015.38 1015.39 1015.45 1015.54 1015.62 1015.64 1015.56 1015.35 1014.96 1014.42 1013.76 1013.04 1012.34
1009.73 1010.22 1010.73 1011.22 1011.66 1012.05 1012.42 1012.77 1013.13 1013.51 1013.90 1014.30 1014.66 1014.98 1015.23 1015.40 1015.50 1015.54 1015.56 1015.57 1015.59 1015.63 1015.68 1015.72 1015.75 1015.74 1015.69 1015.60 1015.49 1015.38 1015.30 1015.26 1015.27 1015.31 1015.36 1015.38 1015.33 1015.17 1014.89 1014.48 1013.98 1013.41 1012.82
1010.41 1010.88 1011.34 1011.77 1012.16 1012.50 1012.83 1013.15 1013.48 1013.84 1014.20 1014.56 1014.90 1015.18 1015.40 1015.54 1015.60 1015.62 1015.61 1015.60 1015.60 1015.62 1015.66 1015.70 1015.73 1015.72 1015.68 1015.60 1015.49 1015.37 1015.26 1015.18 1015.14 1015.12 1015.13 1015.13 1015.09 1014.98 1014.79 1014.50 1014.13 1013.69 1013.22
1010.94 1011.38 1011.80 1012.17 1012.50 1012.80 1013.08 1013.37 1013.68 1014.01 1014.35 1014.68 1014.98 1015.22 1015.40 1015.50 1015.54 1015.52 1015.49 1015.46 1015.46 1015.48 1015.53 1015.59 1015.65 1015.68 1015.68 1015.62 1015.53 1015.41 1015.28 1015.16 1015.06 1015.00 1014.96 1014.92 1014.88 1014.82 1014.69 1014.50 1014.24 1013.92 1013.54
1011.31 1011.72 1012.09 1012.40 1012.68 1012.92 1013.17 1013.43 1013.72 1014.03 1014.35 1014.65 1014.92 1015.13 1015.27 1015.33 1015.34 1015.30 1015.26 1015.22 1015.22 1015.26 1015.33 1015.43 1015.53 1015.61 1015.65 1015.64 1015.58 1015.47 1015.33 1015.18 1015.05 1014.93 1014.85 1014.78 1014.74 1014.69 1014.62 1014.50 1014.34 1014.11 1013.82
1011.55 1011.93 1012.24 1012.50 1012.71 1012.92 1013.12 1013.36 1013.64 1013.93 1014.24 1014.52 1014.76 1014.94 1015.06 1015.09 1015.07 1015.02 1014.96 1014.93 1014.94 1015.00 1015.10 1015.24 1015.39 1015.52 1015.60 1015.64 1015.60 1015.51 1015.38 1015.21 1015.05 1014.90 1014.78 1014.70 1014.64 1014.61 1014.57 1014.52 1014.42 1014.27 1014.05
1011.72 1012.06 1012.31 1012.51 1012.68 1012.84 1013.02 1013.24 1013.50 1013.79 1014.08 1014.35 1014.58 1014.74 1014.82 1014.84 1014.81 1014.75 1014.69 1014.66 1014.68 1014.75 1014.88 1015.04 1015.22 1015.39 1015.52 1015.58 1015.58 1015.50 1015.38 1015.21 1015.03 1014.86 1014.73 1014.63 1014.57 1014.54 1014.54 1014.52 1014.48 1014.38 1014.22
1011.86 1012.15 1012.36 1012.51 1012.64 1012.77 1012.93 1013.14 1013.39 1013.67 1013.95 1014.21 1014.42 1014.56 1014.64 1014.64 1014.60 1014.53 1014.47 1014.44 1014.46 1014.54 1014.68 1014.86 1015.05 1015.24 1015.38 1015.46 1015.48 1015.43 1015.31 1015.15 1014.97 1014.80 1014.65 1014.55 1014.49 1014.46 1014.47 1014.48 1014.46 1014.41 1014.29
1012.00 1012.26 1012.44 1012.56 1012.66 1012.77 1012.92 1013.12 1013.36 1013.64 1013.90 1014.15 1014.35 1014.48 1014.54 1014.53 1014.48 1014.41 1014.34 1014.31 1014.33 1014.40 1014.53 1014.70 1014.88 1015.06 1015.20 1015.30 1015.32 1015.28 1015.18 1015.03 1014.86 1014.69 1014.54 1014.42 1014.35 1014.32 1014.32 1014.32 1014.32 1014.28 1014.18
1012.17 1012.41 1012.57 1012.67 1012.77 1012.88 1013.03 1013.22 1013.46 1013.72 1013.98 1014.20 1014.38 1014.50 1014.54 1014.53 1014.47 1014.40 1014.32 1014.28 1014.28 1014.34 1014.44 1014.58 1014.74 1014.90 1015.02 1015.11 1015.14 1015.10 1015.01 1014.87 1014.71 1014.54 1014.38 1014.25 1014.15 1014.08 1014.04 1014.02 1013.99 1013.94 1013.86
1012.34 1012.58 1012.74 1012.86 1012.97 1013.09 1013.25 1013.44 1013.68 1013.92 1014.16 1014.36 1014.52 1014.62 1014.65 1014.62 1014.56 1014.47 1014.39 1014.34 1014.32 1014.34 1014.41 1014.52 1014.64 1014.77 1014.87 1014.94 1014.96 1014.93 1014.84 1014.72 1014.56 1014.38 1014.20 1014.02 1013.87 1013.74 1013.64 1013.55 1013.48 1013.39 1013.29
1012.50 1012.76 1012.95 1013.10 1013.23 1013.38 1013.55 1013.76 1013.98 1014.21 1014.42 1014.60 1014.73 1014.81 1014.82 1014.78 1014.70 1014.61 1014.52 1014.45 1014.40 1014.40 1014.44 1014.51 1014.59 1014.68 1014.76 1014.82 1014.83 1014.80 1014.72 1014.60 1014.43 1014.23 1014.00 1013.78 1013.55 1013.33 1013.13 1012.95 1012.79 1012.64 1012.51
1012.63 1012.93 1013.16 1013.35 1013.52 1013.70 1013.90 1014.11 1014.33 1014.55 1014.74 1014.88 1014.99 1015.03 1015.02 1014.97 1014.88 1014.77 1014.67 1014.58 1014.51 1014.48 1014.48 1014.52 1014.57 1014.64 1014.70 1014.74 1014.75 1014.72 1014.65 1014.52 1014.33 1014.10 1013.83 1013.52 1013.20 1012.87 1012.56 1012.26 1012.00 1011.78 1011.61
1012.73 1013.07 1013.35 1013.58 1013.80 1014.02 1014.24 1014.46 1014.68 1014.88 1015.04 1015.16 1015.23 1015.25 1015.21 1015.14 1015.03 1014.90 1014.78 1014.68 1014.59 1014.53 1014.50 1014.51 1014.53 1014.58 1014.62 1014.66 1014.68 1014.66 1014.59 1014.46 1014.26 1014.00 1013.67 1013.28 1012.87 1012.43 1011.99 1011.58 1011.22 1010.92 1010.70
1012.79 1013.17 1013.49 1013.77 1014.04 1014.29 1014.53 1014.77 1014.98 1015.16 1015.31 1015.40 1015.43 1015.42 1015.35 1015.25 1015.12 1014.97 1014.83 1014.70 1014.58 1014.50 1014.44 1014.42 1014.43 1014.46 1014.50 1014.54 1014.56 1014.56 1014.50 1014.37 1014.17 1013.88 1013.51 1013.06 1012.56 1012.03 1011.50 1010.99 1010.54 1010.18 1009.91
1012.82 1013.23 1013.58 1013.90 1014.20 1014.48 1014.75 1014.99 1015.20 1015.37 1015.49 1015.55 1015.56 1015.50 1015.41 1015.27 1015.11 1014.94 1014.77 1014.61 1014.47 1014.35 1014.27 1014.22 1014.21 1014.22 1014.26 1014.30 1014.34 1014.34 1014.30 1014.19 1014.00 1013.71 1013.32 1012.85 1012.30 1011.72 1011.12 1010.56 1010.06 1009.65 1009.36
1012.81 1013.23 1013.60 1013.95 1014.27 1014.58 1014.86 1015.12 1015.32 1015.48 1015.58 1015.62 1015.59 1015.50 1015.37 1015.20 1015.01 1014.81 1014.60 1014.41 1014.23 1014.08 1013.97 1013.88 1013.84 1013.84 1013.86 1013.90 1013.94 1013.97 1013.95 1013.86 1013.70 1013.43 1013.07 1012.61 1012.07 1011.49 1010.89 1010.32 1009.81 1009.40 1009.12
Thickness
5762 5759 5755 5751 5746 5740 5736 5732 5728 5725 5721 5717 5712 5709 5705 5703 5700 5697 5693 5690 5688 5686 5684 5682 5681 5680 5678 5676 5675 5673 5672 5672 5672 5670 5670 5673 5675 5676 5676 5675 5675 5675 5676
5754 5752 5748 5745 5740 5735 5731 5728 5724 5720 5716 5713 5708 5705 5700 5697 5694 5691 5687 5684 5682 5679 5678 5675 5674 5672 5671 5669 5668 5667 5665 5665 5665 5662 5660 5659 5662 5666 5669 5667 5667 5667 5668
5749 5745 5742 5739 5735 5729 5726 5723 5718 5715 5711 5708 5704 5699 5694 5690 5686 5683 5680 5678 5676 5673 5671 5669 5667 5665 5664 5662 5661 5660 5658 5657 5658 5659 5654 5650 5650 5654 5658 5659 5659 5659 5660
5748 5741 5737 5733 5729 5725 5722 5718 5713 5709 5706 5702 5697 5692 5686 5681 5678 5676 5674 5672 5670 5667 5665 5662 5661 5659 5657 5655 5655 5654 5653 5652 5651 5652 5652 5651 5650 5645 5645 5649 5650 5650 5651
5743 5735 5733 5729 5726 5721 5717 5712 5707 5702 5699 5695 5691 5685 5680 5676 5673 5670 5667 5664 5663 5660 5658 5656 5654 5652 5650 5648 5648 5647 5647 5646 5645 5645 5645 5645 5645 5644 5639 5638 5639 5641 5643
5739 5732 5729 5725 5720 5716 5711 5706 5700 5695 5691 5688 5683 5679 5673 5669 5665 5661 5658 5656 5654 5653 5651 5649 5647 5644 5643 5643 5642 5641 5640 5640 5640 5639 5639 5638 5637 5637 5635 5633 5633 5633 5635
5730 5725 5722 5718 5714 5710 5705 5700 5694 5688 5685 5681 5677 5673 5668 5663 5659 5655 5651 5649 5647 5644 5643 5641 5639 5638 5637 5637 5636 5635 5634 5634 5633 5633 5633 5633 5633 5633 5632 5629 5628 5628 5628
5724 5718 5715 5713 5708 5704 5699 5695 5689 5683 5679 5675 5670 5666 5662 5657 5653 5649 5646 5642 5640 5638 5636 5634 5633 5632 5631 5631 5630 5629 5628 5628 5628 5628 5628 5627 5628 5628 5627 5625 5623 5620 5621
5718 5714 5711 5707 5702 5698 5693 5689 5683 5677 5673 5669 5664 5660 5656 5651 5647 5643 5641 5637 5634 5632 5630 5629 5628 5626 5625 5624 5623 5622 5622 5622 5621 5621 5622 5621 5622 5623 5623 5623 5621 5617 5614
5713 5709 5705 5701 5697 5692 5688 5683 5677 5672 5668 5664 5659 5655 5650 5645 5641 5638 5634 5631 5628 5625 5624 5622 5621 5619 5619 5618 5617 5616 5616 5615 5614 5615 5616 5616 5617 5617 5618 5618 5617 5616 5613
5708 5703 5698 5695 5691 5687 5682 5676 5672 5667 5662 5658 5653 5648 5643 5639 5635 5632 5628 5625 5622 5620 5618 5617 5615 5614 5613 5612 5611 5610 5610 5609 5608 5609 5609 5610 5610 5610 5611 5612 5611 5611 5610
5704 5698 5694 5689 5685 5681 5676 5671 5667 5662 5657 5652 5647 5642 5637 5633 5629 5625 5622 5619 5616 5614 5612 5611 5609 5608 5607 5607 5605 5604 5604 5603 5602 5602 5602 5603 5604 5603 5604 5605 5605 5606 5606
5697 5693 5687 5683 5679 5674 5670 5667 5662 5656 5651 5646 5640 5635 5630 5626 5622 5619 5616 5613 5611 5608 5607 5605 5603 5602 5601 5600 5599 5598 5597 5597 5596 5596 5596 5596 5597 5596 5597 5598 5599 5600 5601
5689 5685 5680 5676 5673 5669 5665 5661 5656 5651 5646 5641 5635 5629 5625 5621 5617 5613 5610 5608 5605 5603 5601 5600 5598 5597 5595 5594 5592 5591 5590 5590 5590 5590 5590 5590 5590 5591 5591 5592 5593 5594 5594
5682 5679 5674 5670 5667 5663 5659 5654 5650 5645 5641 5635 5630 5625 5620 5616 5612 5609 5606 5603 5601 5599 5597 5595 5593 5591 5589 5586 5584 5584 5584 5584 5584 5584 5585 5585 5586 5586 5586 5587 5587 5588 5588
5678 5674 5670 5665 5661 5658 5654 5649 5644 5640 5636 5631 5626 5621 5616 5612 5608 5605 5602 5599 5596 5594 5592 5590 5588 5586 5583 5579 5577 5577 5578 5578 5578 5579 5581 5582 5582 5583 5582 5582 5582 5583 5583
5674 5669 5665 5661 5657 5653 5649 5644 5641 5636 5632 5628 5623 5618 5613 5608 5605 5602 5598 5595 5592 5590 5588 5586 5584 5581 5577 5574 5573 5573 5573 5574 5575 5576 5577 5579 5581 5580 5580 5580 5580 5580 5581
5669 5665 5661 5657 5653 5649 5645 5642 5638 5633 5629 5624 5619 5614 5610 5605 5602 5598 5595 5592 5589 5586 5584 5582 5580 5578 5574 5572 5570 5570 5571 5572 5573 5574 5575 5575 5576 5576 5576 5577 5578 5578 5579
5665 5661 5658 5654 5650 5646 5642 5638 5634 5630 5626 5621 5616 5612 5608 5602 5598 5595 5592 5590 5587 5584 5582 5580 5578 5576 5573 5570 5569 5567 5569 5571 5572 5573 5574 5574 5574 5572 5572 5573 5574 5575 5576
5662 5657 5654 5650 5646 5642 5640 5635 5630 5626 5623 5619 5614 5610 5606 5601 5596 5593 5591 5589 5587 5584 5581 5579 5577 5576 5573 5570 5569 5567 5568 5570 5570 5571 5572 5571 5571 5569 5569 5570 5572 5572 5574
5658 5654 5651 5646 5642 5639 5636 5631 5627 5623 5621 5618 5613 5608 5604 5600 5596 5593 5590 5588 5586 5584 5581 5579 5577 5576 5574 5571 5569 5568 5567 5568 5569 5569 5570 5569 5568 5568 5567 5567 5568 5570 5571
5654 5651 5646 5642 5639 5636 5632 5628 5624 5622 5619 5616 5611 5606 5602 5600 5597 5592 5590 5588 5586 5583 5581 5579 5578 5577 5575 5572 5570 5568 5567 5565 5566 5567 5568 5567 5566 5566 5567 5568 5569 5570 5569
5651 5648 5644 5639 5636 5633 5630 5625 5623 5620 5618 5614 5609 5605 5601 5599 5597 5593 5591 5589 5586 5584 5583 5581 5579 5578 5577 5574 5571 5569 5567 5566 5565 5566 5566 5566 5566 5567 5568 5570 5570 5569 5570
5649 5646 5642 5637 5633 5631 5629 5625 5623 5620 5617 5612 5608 5605 5602 5599 5597 5594 5593 5590 5588 5585 5583 5582 5580 5580 5577 5575 5572 5570 5568 5567 5566 5565 5566 5566 5567 5568 5570 5571 5572 5573 5573
5648 5644 5640 5636 5633 5630 5628 5626 5623 5620 5615 5612 5608 5605 5603 5601 5598 5595 5593 5591 5588 5586 5582 5581 5580 5578 5576 5572 5568 5567 5567 5565 5563 5562 5565 5568 5570 5570 5572 5573 5575 5576 5575
5647 5643 5639 5636 5633 5631 5628 5626 5623 5620 5615 5611 5608 5606 5604 5602 5600 5598 5595 5592 5590 5587 5584 5581 5578 5577 5574 5572 5569 5568 5566 5564 5561 5560 5565 5568 5570 5572 5573 5574 5576 5577 5577